EW3176 Weather Reports


Display with metric or nautical units.
time (UTC)temp
F
wind
direction
speed
MPH
gust
MPH
rain 1hr
in
rain 24hr
in
rain mn
in
humidity
%
barometer
mb
20260902040044 82 0.0 0.0 0.00 0.00 0.00 81 1019.9
20260902035522 82 0.0 0.0 0.00 0.00 0.00 81 1019.9
20260902034541 82 0.0 0.0 0.00 0.00 0.00 80 1019.9
20260902033521 83 0.0 0.0 0.00 0.00 0.00 80 1020.0
20260902032522 83 0.0 0.0 0.00 0.00 0.00 79 1020.1
20260902031659 83 0.0 0.0 0.00 0.00 0.00 80 1020.1
20260902031020 83 0.0 0.0 0.00 0.00 0.00 79 1020.1
20260902030020 83 0.0 0.0 0.00 0.00 0.00 80 1020.0
20260902025022 83 0.0 0.0 0.00 0.00 0.00 79 1020.0
20260902024041 83 0.0 0.0 0.00 0.00 0.00 79 1019.9
20260902023020 84 0.0 0.0 0.00 0.00 0.00 78 1019.9
20260902022022 84 0.0 0.0 0.00 0.00 0.00 78 1020.1
20260902021022 84 0.0 0.0 0.00 0.00 0.00 77 1019.9
20260902020022 84 0.0 0.0 0.00 0.00 0.00 77 1019.8
20260902015040 84 0.0 0.0 0.00 0.00 0.00 76 1019.6
20260902014023 85 0.0 0.0 0.00 0.00 0.00 76 1019.5
20260902013022 85 0.0 0.0 0.00 0.00 0.00 75 1019.4
20260902012044 85 0.0 0.0 0.00 0.00 0.00 74 1019.4
20260902011021 86 0.0 0.0 0.00 0.00 0.00 73 1019.3
20260902010022 86 0.0 0.0 0.00 0.00 0.00 73 1019.1
20260902005042 87 0.0 0.0 0.00 0.00 0.00 71 1018.9
20260902004022 87 0.0 0.0 0.00 0.00 0.00 70 1018.9
20260902003020 87 0.0 0.0 0.00 0.00 0.00 69 1018.9
20260902002022 88 0.0 0.0 0.00 0.00 0.00 68 1018.9
20260902001043 88 0.0 0.0 0.00 0.00 0.00 67 1018.8
20260902000022 88 0.0 0.0 0.00 0.00 0.00 66 1019.0
20260901235022 89 0.0 0.0 0.00 0.00 0.00 65 1019.0
20260901234024 90 0.0 0.0 0.00 0.00 0.00 63 1019.1
20260901233022 91 0.0 0.0 0.00 0.00 0.00 63 1019.2
20260901232029 91 0.0 0.0 0.00 0.00 0.00 62 1019.3
20260901231023 92 0.0 0.0 0.00 0.00 0.00 60 1019.4
20260901230022 92 0.0 0.0 0.00 0.00 0.00 59 1019.4
20260901225042 93 0.0 1.0 0.00 0.00 0.00 59 1019.4
20260901224022 93 0.0 1.0 0.00 0.00 0.00 57 1019.3
20260901223022 94 0.0 0.0 0.00 0.00 0.00 56 1019.3
20260901222022 94 0.0 1.0 0.00 0.00 0.00 57 1019.4
20260901221042 94 0.0 0.0 0.00 0.00 0.00 55 1019.3
20260901220024 94 0.0 1.0 0.00 0.00 0.00 55 1019.2
20260901215022 94 0.0 1.0 0.00 0.00 0.00 55 1019.3
20260901214022 94 0.0 1.0 0.00 0.00 0.00 56 1019.3
20260901213022 94 0.0 3.0 0.00 0.00 0.00 55 1019.4
20260901212021 95 0.0 5.0 0.00 0.00 0.00 54 1019.3
20260901211022 96 0.0 2.0 0.00 0.00 0.00 54 1019.3
20260901210019 96 0.0 1.0 0.00 0.00 0.00 53 1019.4
20260901205022 97 0.0 2.0 0.00 0.00 0.00 53 1019.4
20260901204022 97 0.0 2.0 0.00 0.00 0.00 53 1019.5
20260901203022 98 0.0 2.0 0.00 0.00 0.00 54 1019.5
20260901202020 98 0.0 3.0 0.00 0.00 0.00 54 1019.5
20260901201024 98 0.0 1.0 0.00 0.00 0.00 55 1019.6
20260901200042 98 0.0 4.0 0.00 0.00 0.00 54 1019.8
20260901195021 97 0.0 0.0 0.00 0.00 0.00 54 1019.8
20260901194042 97 0.0 2.0 0.00 0.00 0.00 54 1019.9
20260901193022 97 0.0 2.0 0.00 0.00 0.00 51 1020.0
20260901192042 98 0.0 2.0 0.00 0.00 0.00 51 1020.1
20260901191021 98 0.0 2.0 0.00 0.00 0.00 54 1020.2
20260901190042 97 0.0 3.0 0.00 0.00 0.00 52 1020.4
20260901185022 97 0.0 1.0 0.00 0.00 0.00 53 1020.5
20260901184022 97 0.0 1.0 0.00 0.00 0.00 54 1020.7
20260901183024 97 0.0 1.0 0.00 0.00 0.00 53 1020.6
20260901182022 96 293 1.0 6.0 0.00 0.00 0.00 54 1020.7
20260901181022 97 270 1.0 6.0 0.00 0.00 0.00 53 1020.7
20260901180022 97 0.0 2.0 0.00 0.00 0.00 54 1020.7
20260901175021 96 0.0 4.0 0.00 0.00 0.00 54 1020.7
20260901174021 97 0.0 5.0 0.00 0.00 0.00 55 1020.8
20260901173021 97 293 1.0 3.0 0.00 0.00 0.00 54 1020.9
20260901172023 97 0.0 1.0 0.00 0.00 0.00 56 1020.9
20260901171521 97 0.0 3.0 0.00 0.00 0.00 54 1021.0
20260901170541 97 0.0 3.0 0.00 0.00 0.00 53 1021.1
20260901165521 96 0.0 4.0 0.00 0.00 0.00 55 1021.1
20260901164522 97 270 1.0 8.0 0.00 0.00 0.00 54 1021.3
20260901163521 98 0.0 1.0 0.00 0.00 0.00 55 1021.4
20260901162521 98 0.0 1.0 0.00 0.00 0.00 54 1021.5
20260901161521 98 0.0 0.0 0.00 0.00 0.00 57 1021.8
20260901160522 97 0.0 3.0 0.00 0.00 0.00 59 1021.9
20260901155521 96 0.0 1.0 0.00 0.00 0.00 58 1021.9
20260901154521 97 0.0 0.0 0.00 0.00 0.00 61 1022.1
20260901153521 95 0.0 3.0 0.00 0.00 0.00 64 1022.2
20260901152521 93 293 1.0 6.0 0.00 0.00 0.00 63 1022.3
20260901151521 93 0.0 3.0 0.00 0.00 0.00 69 1022.4
20260901150521 92 0.0 4.0 0.00 0.00 0.00 67 1022.4
20260901145521 93 0.0 2.0 0.00 0.00 0.00 64 1022.4
20260901144521 92 0.0 1.0 0.00 0.00 0.00 68 1022.4
20260901143541 93 0.0 3.0 0.00 0.00 0.00 64 1022.4
20260901142521 93 0.0 1.0 0.00 0.00 0.00 66 1022.4
20260901141743 92 0.0 1.0 0.00 0.00 0.00 69 1022.3
20260901140521 91 0.0 0.0 0.00 0.00 0.00 69 1022.4
20260901135544 90 0.0 3.0 0.00 0.00 0.00 70 1022.4
20260901134521 89 0.0 1.0 0.00 0.00 0.00 73 1022.4
20260901133521 86 0.0 2.0 0.00 0.00 0.00 76 1022.3
20260901132521 86 0.0 3.0 0.00 0.00 0.00 77 1022.3
20260901131542 86 0.0 1.0 0.00 0.00 0.00 76 1022.2
20260901130521 85 0.0 1.0 0.00 0.00 0.00 79 1022.4
20260901125541 83 0.0 0.0 0.00 0.00 0.00 83 1022.3
20260901124542 81 0.0 2.0 0.00 0.00 0.00 86 1022.2
20260901123541 79 0.0 2.0 0.00 0.00 0.00 87 1022.1
20260901122541 78 0.0 3.0 0.00 0.00 0.00 88 1022.2
20260901121524 77 0.0 0.0 0.00 0.00 0.00 90 1022.1
20260901120544 77 0.0 0.0 0.00 0.00 0.00 90 1022.1
20260901120042 77 0.0 0.0 0.00 0.00 0.00 90 1022.0
20260901115021 77 0.0 0.0 0.00 0.00 0.00 89 1022.0
20260901114021 77 0.0 1.0 0.00 0.00 0.00 90 1021.7
20260901113021 75 0.0 0.0 0.00 0.00 0.00 93 1021.4
20260901112022 74 0.0 0.0 0.00 0.00 0.00 93 1021.4
20260901111022 74 0.0 0.0 0.00 0.00 0.00 93 1021.4
20260901110021 74 0.0 0.0 0.00 0.00 0.00 93 1021.3
20260901105021 74 0.0 0.0 0.00 0.00 0.00 92 1021.2
20260901104042 74 0.0 0.0 0.00 0.00 0.00 92 1021.2
20260901103024 74 0.0 0.0 0.00 0.00 0.00 92 1021.1
20260901102021 75 0.0 0.0 0.00 0.00 0.00 91 1021.0
20260901101021 75 0.0 0.0 0.00 0.00 0.00 91 1021.1
20260901100041 75 0.0 0.0 0.00 0.00 0.00 90 1021.2
20260901095021 75 0.0 0.0 0.00 0.00 0.00 90 1021.2
20260901094041 75 0.0 0.0 0.00 0.00 0.00 90 1021.0
20260901093021 76 0.0 0.0 0.00 0.00 0.00 89 1021.0
20260901092041 76 0.0 0.0 0.00 0.00 0.00 89 1021.0
20260901091022 76 0.0 0.0 0.00 0.00 0.00 89 1021.1
20260901090041 76 0.0 0.0 0.00 0.00 0.00 88 1021.1
20260901085024 77 0.0 0.0 0.00 0.00 0.00 88 1021.0
20260901084021 77 0.0 0.0 0.00 0.00 0.00 88 1021.1
20260901083021 77 0.0 0.0 0.00 0.00 0.00 88 1021.2
20260901082541 77 0.0 0.0 0.00 0.00 0.00 88 1021.2
20260901081521 77 0.0 0.0 0.00 0.00 0.00 87 1021.3
20260901080542 77 0.0 0.0 0.00 0.00 0.00 87 1021.3
20260901075542 78 0.0 0.0 0.00 0.00 0.00 87 1021.4
20260901074521 78 0.0 0.0 0.00 0.00 0.00 86 1021.3
20260901073524 78 0.0 0.0 0.00 0.00 0.00 86 1021.6
20260901072521 78 0.0 0.0 0.00 0.00 0.00 86 1021.7
20260901071521 78 0.0 0.0 0.00 0.00 0.00 85 1021.7
20260901070521 78 0.0 1.0 0.00 0.00 0.00 85 1021.8
20260901065541 78 0.0 0.0 0.00 0.00 0.00 85 1021.8
20260901064521 79 0.0 0.0 0.00 0.00 0.00 85 1021.8
20260901063521 79 0.0 0.0 0.00 0.00 0.00 84 1021.9
20260901063023 79 0.0 0.0 0.00 0.00 0.00 83 1021.9
20260901062021 79 0.0 0.0 0.00 0.00 0.00 82 1021.9
20260901061022 80 0.0 0.0 0.00 0.00 0.00 82 1021.9
20260901060021 80 0.0 0.0 0.00 0.00 0.00 81 1022.0
20260901055041 80 0.0 0.0 0.00 0.00 0.00 80 1022.0
20260901054042 80 0.0 0.0 0.00 0.00 0.00 80 1022.0
20260901053021 81 0.0 0.0 0.00 0.00 0.00 79 1022.1
20260901052021 81 0.0 0.0 0.00 0.00 0.00 79 1022.0
20260901051021 81 0.0 0.0 0.00 0.00 0.00 80 1022.1
20260901050021 81 0.0 0.0 0.00 0.00 0.00 80 1022.1
20260901045022 81 0.0 0.0 0.00 0.00 0.00 79 1022.2
20260901044021 81 0.0 0.0 0.00 0.00 0.00 80 1022.1
20260901043021 81 0.0 0.0 0.00 0.00 0.00 80 1022.0
20260901042102 81 0.0 0.0 0.00 0.00 0.00 81 1022.0
20260901041021 81 0.0 0.0 0.00 0.00 0.00 82 1022.0